This demonstration page uses our WeatherBlox Daily Observations layout. Learn more.

Left ArrowRight Arrow

Hourly Observations for May 30, 2015

Temp ( °F °C ) Dew Point ( °F °C ) Humidity (%) Winds ( mph kmh ) Pressure ( in mb ) Visibility ( mi km ) Precip ( " mm )
12:51 am 00:51 Clear 76 24.4 20 -6.7 12 12 N 8 13 29.80 1009 10 16 0.00 0.00
1:51 am 01:51 Clear 71 21.7 19 -7.2 14 14 NNE 9 15 29.80 1009 10 16 0.00 0.00
2:51 am 02:51 Clear 70 21.1 19 -7.2 14 14 NNW 7 11 29.80 1009 10 16 0.00 0.00
3:51 am 03:51 Clear 64 17.8 22 -5.6 20 20 SSE 7 11 29.82 1010 10 16 0.00 0.00
4:51 am 04:51 Clear 63 17.2 21 -6.1 20 20 Calm 29.84 1011 10 16 0.00 0.00
5:51 am 05:51 Sunny 62 16.7 22 -5.6 21 21 SSE 5 7 29.87 1012 10 16 0.00 0.00
6:51 am 06:51 Sunny 73 22.8 23 -5 15 15 ESE 3 6 29.87 1012 10 16 0.00 0.00
7:51 am 07:51 Sunny 77 25 25 -3.9 14 14 E 3 6 29.89 1012 10 16 0.00 0.00
8:51 am 08:51 Sunny 83 28.3 28 -2.2 13 13 S 7 11 29.89 1012 10 16 0.00 0.00
9:51 am 09:51 Sunny 88 31.1 28 -2.2 11 11 ESE 10 17 29.89 1012 10 16 0.00 0.00
10:51 am 10:51 Sunny 92 33.3 28 -2.2 10 10 SE 14 22 29.88 1012 10 16 0.00 0.00
11:51 am 11:51 Sunny 94 34.4 28 -2.2 9 9 S 9 15 29.86 1011 10 16 0.00 0.00
12:51 pm 12:51 Mostly Sunny 96 35.6 28 -2.2 9 9 WSW 10 17 29.82 1010 10 16 0.00 0.00
1:51 pm 13:51 Mostly Cloudy 97 36.1 28 -2.2 9 9 VRB 7 11 29.80 1009 10 16 0.00 0.00
2:51 pm 14:51 Cloudy 97 36.1 26 -3.3 8 8 VRB 7 11 29.78 1008 10 16 0.00 0.00
3:51 pm 15:51 Cloudy 97 36.1 26 -3.3 8 8 undefined N/A 29.77 1008 10 16 0.00 0.00
4:51 pm 16:51 Mostly Cloudy 98 36.7 26 -3.3 8 8 SSW 3 6 29.74 1007 10 16 0.00 0.00
5:51 pm 17:51 Cloudy 96 35.6 25 -3.9 8 8 SW 5 7 29.74 1007 10 16 0.00 0.00
6:51 pm 18:51 Mostly Cloudy 94 34.4 25 -3.9 8 8 SW 3 6 29.72 1007 10 16 0.00 0.00
7:51 pm 19:51 Partly Cloudy 89 31.7 28 -2.2 11 11 Calm 29.74 1007 10 16 0.00 0.00
8:51 pm 20:51 Mostly Clear 80 26.7 27 -2.8 14 14 Calm 29.76 1008 10 16 0.00 0.00
9:51 pm 21:51 Clear 86 30 27 -2.8 12 12 NW 14 22 29.76 1008 10 16 0.00 0.00
10:51 pm 22:51 Clear 78 25.6 27 -2.8 15 15 SW 3 6 29.78 1009 10 16 0.00 0.00
11:51 pm 23:51 Clear 73 22.8 27 -2.8 18 18 Calm 29.79 1009 10 16 0.00 0.00

Powered by AerisWeather